Regional Weather Roundup
Issued by NWS

Home | Current Version | Previous Version | Graphics & Text | Print | Product List | Glossary On
Versions: 1 2 3 4 5 6 7 8 9 10 11 12 13 14 15 16 17 18 19 20 21 22 23 24 25 26 27 28 29 30 31 32 33 34 35 36 37 38 39 40 41 42 43 44 45 46 47 48 49 50
000
ASUS45 KTFX 270110
RWRMT
MONTANA REGIONAL WEATHER ROUNDUP
NATIONAL WEATHER SERVICE GREAT FALLS MT
700 PM MDT FRI MAY 26 2017

NOTE: "FAIR" INDICATES FEW OR NO CLOUDS BELOW 12000 FEET WITH NO
SIGNIFICANT WEATHER AND/OR OBSTRUCTIONS TO VISIBILITY.

MTZ001>007-043-270200-
WEST OF THE DIVIDE

CITY           SKY/WX    TMP DP  RH WIND       PRES   REMARKS
KALISPELL      PTSUNNY   68  38  33 NW5       29.91R
MISSOULA         N/A     69  37  30 NW12      29.94R
BUTTE          CLOUDY    55  29  36 W13G23    29.99R
MULLAN PASS    SUNNY     55  30  38 NW7       30.04R
ANACONDA         N/A     57  32  38 E6        29.97S
DEER LODGE       N/A     61  34  36 N8        29.98S
EUREKA           N/A     70  37  30 E3        29.91S
HAMILTON         N/A     64  34  32 N8        29.95R
PLAINS           N/A     71  37  28 CALM      29.92R
RONAN            N/A     69  36  29 W5        29.99R
$$

MTZ008-052>055-270200-
SOUTHWEST MONTANA

CITY           SKY/WX    TMP DP  RH WIND       PRES   REMARKS
BOZEMAN        SUNNY     56  38  50 SE9       29.95R
DILLON         MOSUNNY   62  28  27 N10       29.94R
ENNIS          PTSUNNY   59  28  31 NW15      30.00R
THREE FORKS      N/A     61  26  26 NW9       29.95R
TWIN BRIDGES     N/A     62  26  25 N17       29.94R
$$

MTZ009-010-012-014-046-048-049-054-270200-
EAST SLOPES AND CENTRAL MONTANA

CITY           SKY/WX    TMP DP  RH WIND       PRES   REMARKS
CUT BANK       PTSUNNY   61  31  32 NW10      29.92R
GREAT FALLS    CLOUDY    58  40  51 SW7       29.92R
MALMSTROM AFB  CLOUDY    60  37  41 SW12      29.92R
HELENA         CLOUDY    55  39  54 W21G31    29.98R
CHOTEAU          N/A     63  34  34 NE8       29.95S
CONRAD           N/A     65  45  48 N3        29.96R
$$

MTZ011-013-016-021-045-047-050-051-270200-
NORTH CENTRAL MONTANA

CITY           SKY/WX    TMP DP  RH WIND       PRES   REMARKS
HAVRE          MOSUNNY   62  37  39 N14       29.90R
LEWISTOWN      SUNNY     59  31  34 NW6       29.94R
N BAR RANCH      N/A     59  30  33 NW9G16    29.97R
CHINOOK          N/A     64  39  39 N3        29.89R
FORT BENTON      N/A     64  34  32 CALM      29.90R
$$

MTZ017>020-022>027-061-062-270200-
NORTHEAST MONTANA

CITY           SKY/WX    TMP DP  RH WIND       PRES   REMARKS
GLASGOW        CLOUDY    55  42  61 W13G22    29.87R
JORDAN           N/A     67  32  27 NW13      29.88R
SIDNEY         MOSUNNY   66  33  29 W13       29.82R
WOLF POINT     CLOUDY    66  37  34 W24G33    29.83R
MALTA          SUNNY     61  41  48 W7G13     29.86F
PLENTYWOOD       N/A     61  37  41 W22       29.79S
POPLAR           N/A     66  36  32 NW10      29.82R
SCOBEY           N/A     61  34  36 W15       29.82S
$$

MTZ028>42-056>058-270200-
SOUTHCENTRAL AND SOUTHEAST MONTANA

CITY           SKY/WX    TMP DP  RH WIND       PRES   REMARKS
BAKER          MOSUNNY   62  32  32 NW6       29.89R
BILLINGS       CLOUDY    63  33  32 VRB5      29.93R
LIVINGSTON     CLOUDY    59  34  39 E8        29.94R
MILES CITY     CLOUDY    65  29  25 NW8       29.88R
BIG TIMBER     MOSUNNY   55  36  47 NW9       29.97S
EKALAKA          N/A     58  34  40 W6        29.91R
FORSYTH          N/A     64  30  27 W7        29.89S
LAUREL           N/A     61  31  32 E2        29.94R
ROUNDUP          N/A     63  28  26 SW3       29.85S
$$

REGIONAL REPORTS...DAKOTAS

CITY           SKY/WX    TMP DP  RH WIND       PRES   REMARKS
WILLISTON      SUNNY     68  34  28 NW15G24   29.79R
MINOT          PTSUNNY   67  33  28 W14       29.74R
DICKINSON      SUNNY     62  32  32 W8        29.83R
BEACH            N/A     63  30  29 NW12      29.88R
CROSBY         PTSUNNY   66  34  30 W21G26    29.76R
TIOGA            N/A     64  32  29 NW14G21   29.79R
WATFORD CITY     N/A     64  34  32 NW13G18   29.80R
BISMARCK       SUNNY     68  36  30 NW7       29.80S
GRAND FORKS    MOSUNNY   68  45  43 W16       29.72R
FARGO          CLEAR     67  43  41 W16G22    29.75S
BUFFALO SD       N/A     62  37  39 NW9       29.84R
RAPID CITY     LGT RAIN  56  46  69 SW6       29.94R
$$

REGIONAL REPORTS...WYOMING/IDAHO/WASHINGTON

CITY           SKY/WX    TMP DP  RH WIND       PRES   REMARKS
GILLETTE       CLOUDY    54  39  57 CALM      29.95S
SHERIDAN       LGT RAIN  49  44  83 W7        29.99R
BUFFALO WY     LGT RAIN  47  41  80 NW8       30.00R
CODY           LGT RAIN  46  39  76 SW6       30.02R
YELLOWSTONE LA   N/A     39  34  82 CALM      30.05R
IDAHO FALLS    CLOUDY    46  40  79 CALM      30.02R
SALMON         SUNNY     64  30  27 E10       29.92R
BOISE          MOSUNNY   72  36  26 NW15G22   29.92R
SPOKANE        MOSUNNY   73  35  25 SW10      29.95R
$$

REGIONAL REPORTS...ALBERTA

CITY           SKY/WX    TMP DP  RH WIND       PRES   REMARKS
EDMONTON       CLOUDY    70  39  32 N8        29.75R
CALGARY        PTSUNNY   66  32  28 N13       29.87R
LETHBRIDGE     MOSUNNY   66  34  30 W10       29.87R
MEDICINE HAT   PTSUNNY   64  41  42 SW7       29.82S
WATERTON GATE    N/A     61  34  36 NE2         N/A
CARDSTON         N/A     66  34  30 NW5         N/A
MILK RIVER       N/A     66  36  32 NW12        N/A
ONEFOUR          N/A     63  36  36 W13         N/A
$$

REGIONAL REPORTS...SASKATCHEWAN

CITY           SKY/WX    TMP DP  RH WIND       PRES   REMARKS
SWIFT CURRENT  LGT RAIN  54  43  66 SW17G25   29.82R
REGINA         MOSUNNY   64  32  29 NW21G26   29.70R
SASKATOON      MOSUNNY   64  34  32 N17G23    29.69R
CYPRESS HILLS    N/A     54  36  50 W7          N/A
VAL MARIE        N/A     55  37  50 N28G35      N/A
ROCKGLEN         N/A     57  37  47 W12         N/A
ASSINIBOIA       N/A     70  34  26 NW14G20     N/A
$$



USA.gov is the U.S. government's official web portal to all federal, state and local government web resources and services.